Theta_e
298 298 298 298 297 297 297 297 296 296 296 295 295 295 294 294 293 293 293 292 292 292 291 291 290 290 289 289 288 288 288 288 288 288 288 288 288 287 287 287 287 287
298 298 297 297 297 297 297 296 296 296 296 295 295 294 294 293 293 292 292 292 292 292 291 290 290 289 289 288 288 288 288 288 288 288 288 288 287 287 287 287 287 286
298 297 297 297 297 297 297 296 296 296 295 295 294 294 294 293 292 292 292 292 292 291 291 290 289 289 289 288 288 288 288 288 288 288 287 287 287 287 287 287 286 286
297 297 297 297 297 297 296 296 296 295 295 295 294 294 293 293 292 292 292 292 292 291 291 290 289 289 289 288 288 288 288 288 288 287 287 287 287 287 286 286 286 285
296 296 296 296 296 296 296 296 295 295 295 294 294 293 293 293 292 292 292 292 292 291 290 290 289 289 288 288 288 288 288 288 287 287 287 287 286 286 286 286 285 285
296 296 296 296 296 296 296 295 295 295 295 294 294 293 293 292 292 292 292 292 292 291 290 289 289 288 288 288 288 288 288 288 287 287 287 286 286 286 286 285 285 285
296 296 296 296 296 295 295 295 295 295 294 294 293 293 292 292 292 292 292 292 291 291 290 289 288 288 288 288 288 288 288 288 287 287 287 287 286 286 286 285 285 285
296 296 296 295 295 295 295 295 294 294 294 293 293 293 292 292 292 292 292 292 291 290 289 289 288 288 288 288 288 288 288 288 287 287 287 287 286 286 285 285 285 284
296 296 296 295 295 294 294 294 294 294 293 293 293 292 292 292 292 292 291 291 291 290 289 289 288 288 288 288 288 288 288 288 288 287 287 287 286 286 285 285 284 284
295 295 295 294 294 294 294 294 294 293 293 293 292 292 292 292 291 291 291 291 290 290 289 288 288 288 288 288 288 288 288 288 288 288 287 287 286 285 285 284 284 284
295 295 294 294 293 293 293 293 293 293 292 292 292 291 291 291 291 291 291 290 290 289 289 288 288 288 288 288 288 288 288 288 288 287 287 286 285 284 284 284 284 283
294 294 293 293 293 292 293 293 292 292 292 292 291 291 291 291 291 291 290 290 289 289 288 288 288 288 288 288 288 288 288 288 287 287 286 285 285 284 284 283 283 283
294 294 293 292 292 292 292 292 292 292 291 291 291 291 291 291 291 290 290 289 289 289 288 288 288 288 288 288 288 288 287 287 287 286 286 285 284 284 283 283 283 283
294 293 292 292 291 291 291 291 291 291 291 291 290 290 290 291 290 290 289 289 289 289 288 288 288 288 288 288 287 287 287 287 287 286 286 285 284 284 283 283 283 283
293 292 291 291 291 291 291 291 291 291 290 290 290 290 290 290 290 289 289 289 289 289 288 288 288 287 287 287 287 287 287 287 286 286 286 285 284 283 283 283 283 283
292 292 291 290 290 290 291 291 291 291 290 290 290 290 290 290 290 289 289 289 289 288 288 288 288 287 287 287 287 287 287 287 286 286 285 285 284 283 283 283 283 282
292 291 291 290 290 290 290 290 290 290 290 290 290 290 290 290 289 289 289 289 288 288 288 288 287 287 287 287 286 286 286 286 286 286 286 285 284 284 283 283 282 282
292 291 290 290 290 290 290 290 290 290 290 290 290 290 290 289 289 289 289 289 288 288 288 288 287 287 287 287 286 286 286 286 286 286 286 285 285 284 283 283 282 282
292 291 291 290 290 290 290 290 290 290 290 290 290 289 289 289 289 289 289 288 288 288 288 288 287 287 287 287 286 286 286 286 286 286 286 285 285 284 284 283 282 282
292 291 291 290 290 289 290 290 290 290 290 290 289 289 289 289 289 289 289 288 288 288 288 288 287 287 287 287 287 286 286 286 286 286 285 285 285 284 284 283 282 282
292 292 291 290 290 289 289 290 290 290 290 290 289 289 289 288 288 288 288 288 288 288 288 288 288 287 287 287 287 287 286 286 286 285 285 285 284 284 284 283 282 282
293 293 292 291 290 289 289 289 290 290 290 290 289 289 288 288 288 288 288 288 288 288 288 288 288 287 287 287 287 287 287 287 286 285 285 284 284 284 284 283 282 282
294 293 293 292 290 289 289 289 290 290 290 290 290 289 289 288 288 288 288 288 288 288 288 288 287 287 287 287 287 287 287 287 286 286 285 285 284 284 284 283 282 282
294 294 294 293 291 290 289 289 289 290 290 290 290 289 289 288 288 288 288 288 288 288 288 287 287 287 287 287 287 287 287 287 286 286 286 285 284 284 284 283 282 281
294 294 294 293 292 291 290 290 289 289 290 290 290 290 289 288 288 288 288 288 288 288 287 287 287 287 287 287 287 287 287 287 286 286 286 285 285 284 284 283 282 282
294 294 294 293 292 291 291 290 289 289 289 290 290 290 289 289 288 288 288 288 288 287 287 287 287 287 287 286 286 286 286 286 286 286 286 285 285 284 284 283 283 282
Wind_Speed
18 17 16 16 14 12 11 11 10 8 6 5 4 2 2 1 2 3 3 4 6 8 9 10 10 10 10 10 10 10 11 11 12 12 12 12 13 13 13 13 13 13
20 18 17 16 15 13 12 11 9 8 7 5 4 3 3 2 3 4 4 6 7 9 10 10 10 10 10 10 10 11 11 12 12 12 12 13 13 13 13 13 13 13
21 19 18 16 14 14 13 12 10 9 7 6 6 5 4 4 4 4 5 6 8 9 10 10 10 10 10 10 11 11 11 11 12 12 12 12 12 13 13 13 13 12
22 20 18 16 14 14 13 12 11 10 8 7 6 5 4 4 4 4 5 6 8 9 10 10 10 10 10 10 10 10 10 11 11 12 12 12 12 12 12 12 12 12
23 21 19 17 16 15 14 13 11 10 9 8 7 6 4 4 3 3 4 6 7 9 9 9 9 9 9 9 10 10 10 11 11 11 12 12 12 12 12 12 13 13
24 22 20 19 18 16 15 14 12 11 10 9 7 6 5 3 2 2 3 5 7 8 9 9 9 9 9 9 9 10 10 11 11 11 11 12 12 12 13 13 14 14
25 23 22 21 19 18 16 15 14 13 11 10 8 6 5 3 2 0 2 5 6 8 9 9 9 9 9 10 10 10 11 11 11 11 12 12 12 13 14 14 14 14
26 25 24 23 21 20 18 17 16 14 12 10 9 7 6 5 3 2 2 4 6 8 9 9 9 9 9 10 10 10 11 11 12 12 13 13 13 14 14 14 14 14
27 26 26 24 23 21 20 19 17 15 13 12 10 9 8 6 5 3 3 5 6 8 8 8 9 9 9 10 10 11 11 12 13 13 13 13 13 13 13 13 13 14
29 28 27 26 24 23 22 20 18 16 14 13 12 11 9 8 6 5 4 5 6 7 8 8 9 9 9 10 10 11 12 12 13 13 13 13 12 13 13 13 13 14
31 30 29 27 26 25 23 21 19 17 15 14 13 12 11 9 7 6 5 5 6 7 8 8 9 9 10 11 11 12 12 12 12 12 12 12 12 13 13 13 14 14
33 32 31 29 27 26 24 22 19 17 16 15 14 13 12 10 8 7 6 5 6 7 8 8 9 10 11 12 13 13 12 12 12 12 12 12 12 13 14 14 15 15
35 33 32 30 28 27 24 22 20 19 18 17 16 14 12 11 9 8 6 6 7 7 8 9 9 10 12 13 13 13 12 12 12 12 12 12 13 14 14 15 16 16
35 34 32 31 29 27 25 23 21 20 19 18 17 15 13 12 10 8 7 7 7 7 8 9 10 11 13 14 14 13 13 13 13 13 13 13 13 14 15 15 16 17
35 35 33 32 31 29 27 25 23 22 20 19 17 16 14 13 11 9 8 8 8 8 8 9 11 12 13 14 15 14 14 13 14 14 14 14 14 14 15 16 17 17
37 36 35 34 32 30 28 26 24 23 21 20 18 16 15 14 12 10 9 9 8 7 8 9 11 12 14 15 16 15 15 14 15 15 14 14 14 14 15 16 17 17
38 38 36 35 34 31 29 27 26 24 23 21 19 18 17 15 13 11 10 9 8 8 9 10 11 12 14 15 16 16 16 15 15 15 15 15 15 15 16 16 17 18
40 39 38 37 35 33 31 29 27 26 24 23 22 20 19 17 14 13 12 10 10 9 9 10 11 12 13 15 16 16 17 17 16 16 16 16 17 17 17 18 18 18
41 40 39 38 36 34 32 30 29 27 26 25 23 21 20 18 16 14 13 12 11 10 11 11 11 12 13 14 15 16 17 18 18 18 18 18 19 19 19 19 19 20
42 41 40 39 38 36 34 32 30 29 27 26 24 23 22 20 17 16 15 14 13 12 12 11 11 12 12 14 15 16 17 19 19 20 20 20 21 21 22 21 21 21
42 42 41 40 39 37 36 34 32 31 29 28 27 25 23 20 19 18 17 16 15 14 13 12 12 12 12 13 15 16 18 19 20 21 21 22 23 23 23 23 22 22
43 43 41 41 41 39 38 36 35 33 31 30 28 27 25 22 21 21 19 18 18 16 15 14 13 13 12 13 15 16 18 19 20 21 22 23 24 24 24 24 24 24
45 43 41 42 42 41 40 38 36 35 33 32 30 29 27 25 24 22 21 21 21 19 18 16 15 15 13 13 15 17 19 20 20 21 22 23 24 25 25 25 25 25
45 42 41 42 43 41 40 39 38 37 35 33 32 30 28 26 25 24 23 24 24 22 21 19 18 17 16 15 15 17 19 20 20 21 22 23 24 25 26 26 26 25
43 41 42 43 42 40 39 39 39 38 36 34 32 31 30 28 27 26 26 27 26 25 24 22 20 19 19 17 16 17 19 20 20 21 22 23 24 25 27 27 27 27
42 42 43 42 40 38 38 39 39 38 37 35 33 32 31 30 29 29 29 29 28 27 27 25 23 23 22 20 18 18 19 20 21 21 22 23 25 26 27 28 28 28
Wind_Direction
183 182 178 173 169 168 167 168 168 165 161 157 157 161 155 131 94 86 69 53 40 29 25 21 18 17 15 16 14 13 12 9 8 6 4 2 359 358 355 351 351 348
186 184 181 178 175 173 173 173 172 171 172 170 175 182 171 144 117 98 71 50 38 27 23 18 14 13 12 11 10 8 6 3 1 359 356 355 352 350 348 345 345 344
188 186 183 184 184 183 181 178 178 179 182 184 187 189 170 139 115 88 61 43 31 22 16 12 9 7 5 4 3 0 359 355 353 351 349 349 346 344 343 341 341 341
188 187 186 188 190 191 188 185 185 185 187 194 193 185 163 135 110 80 55 35 23 15 8 4 1 359 357 356 355 353 351 349 347 346 346 345 343 342 342 341 340 340
190 189 189 193 196 195 193 190 191 191 194 199 195 180 162 141 113 75 44 24 15 6 360 356 352 352 351 349 349 347 347 347 347 346 345 344 341 340 341 340 339 339
192 193 195 199 200 198 196 194 194 198 200 200 193 181 170 156 128 68 26 10 3 356 350 348 346 346 345 343 345 346 346 347 346 345 343 341 339 339 339 338 337 337
196 198 200 203 202 200 199 198 200 203 203 200 193 189 187 183 183 348 354 350 349 346 343 341 340 339 339 340 341 342 343 343 341 341 340 338 337 336 335 334 334 333
202 203 205 206 204 202 201 203 205 206 205 202 199 201 202 203 216 259 315 332 336 337 336 334 333 333 334 335 336 336 336 337 337 337 336 334 333 331 330 329 329 329
207 208 209 208 207 205 205 207 209 208 206 205 206 209 210 213 224 250 287 313 324 328 329 328 327 328 329 329 329 330 331 333 333 332 330 328 325 323 322 322 324 324
210 211 212 211 209 208 209 210 211 210 208 208 210 213 215 220 231 248 271 296 314 322 324 322 321 323 324 324 325 327 329 329 327 324 322 320 317 316 316 317 319 320
212 214 214 212 211 211 212 213 213 212 211 211 213 217 220 224 234 248 263 287 308 316 317 315 317 320 321 323 324 324 324 321 318 316 313 313 312 311 312 314 314 316
214 215 215 214 213 214 214 215 214 214 214 214 216 219 223 228 236 248 263 286 303 310 311 311 315 319 320 321 321 318 316 313 310 309 309 309 309 308 308 310 312 313
216 217 216 216 216 216 216 216 215 215 215 215 217 220 225 232 240 249 262 281 296 303 307 310 315 318 319 317 314 311 309 307 306 305 306 306 305 306 306 307 309 310
218 219 218 218 217 217 217 216 216 216 215 216 219 223 228 234 242 249 260 276 290 298 303 310 315 316 316 313 309 306 303 303 303 302 303 303 303 303 303 304 305 307
219 220 219 219 219 218 217 218 218 217 216 218 221 224 229 236 242 248 258 270 281 293 301 309 313 315 314 310 307 304 301 300 301 300 300 301 300 301 301 301 303 304
220 221 220 220 220 219 219 219 219 218 218 220 222 225 232 238 242 246 256 267 276 287 298 306 311 313 314 312 308 304 299 298 297 297 299 299 299 300 300 300 301 302
222 222 222 222 221 220 220 220 220 219 219 221 224 229 235 238 241 245 252 262 270 282 292 301 309 314 317 317 312 305 299 296 296 298 300 301 302 302 301 300 300 301
222 223 223 223 223 222 222 222 221 220 221 224 227 231 236 238 240 243 248 256 264 274 287 296 306 315 320 321 318 312 305 301 302 303 305 306 306 305 304 302 301 301
223 224 225 226 225 225 224 223 222 223 225 228 229 231 235 237 238 241 246 252 259 269 280 290 303 314 321 323 324 322 316 310 309 309 309 310 309 308 306 303 301 302
225 226 228 228 227 226 225 224 225 227 228 229 229 232 235 237 239 242 244 249 256 264 273 284 298 309 317 323 326 326 323 319 316 313 312 313 311 309 306 303 302 302
227 229 229 230 228 227 227 226 227 230 230 230 230 233 236 237 239 241 243 247 253 259 267 277 289 298 308 317 323 325 324 323 322 318 315 313 312 309 306 303 302 301
230 230 231 231 230 229 228 228 230 231 231 231 231 232 234 236 238 241 244 248 251 255 261 269 278 286 295 307 314 318 320 322 323 321 318 315 312 309 305 302 300 299
232 232 233 234 232 230 230 231 233 233 232 232 232 232 234 237 241 244 245 247 249 253 257 263 270 276 284 294 303 308 312 317 320 319 319 317 312 308 305 301 298 297
234 235 237 238 235 233 233 235 235 235 234 234 234 235 237 240 242 244 244 247 250 252 255 260 266 271 276 283 292 299 304 310 313 315 317 316 312 308 304 300 297 296
237 239 242 242 240 238 237 238 238 237 236 236 236 237 238 240 242 243 245 247 249 251 254 258 263 268 272 277 284 292 298 303 308 311 313 314 311 307 304 300 297 296
241 243 245 246 246 244 242 240 240 238 238 237 238 238 239 240 241 244 246 248 249 251 254 258 262 266 269 274 279 286 292 298 303 307 310 310 309 307 304 300 297 297